Miscellaneous Local Product
Issued by NWS Hastings, NE

Home | Current Version | Previous Version | Graphics & Text | Print | Product List | Glossary On
Versions: 1 2 3 4 5 6 7 8 9 10 11 12 13 14 15 16 17 18 19 20 21 22 23 24 25 26 27 28 29 30 31 32 33 34 35 36 37 38 39 40 41 42 43 44 45 46 47 48 49 50
257
AXUS43 KGID 081802
MISGRI

GID CWA HOURLY WEATHER ROUNDUP
NATIONAL WEATHER SERVICE HASTINGS NE
1200 PM CST MON FEB 08 2016

NOTE: "FAIR" INDICATES FEW OR NO CLOUDS BELOW 12,000 FEET WITH NO
SIGNIFICANT WEATHER AND/OR OBSTRUCTIONS TO VISIBILITY.

...SOUTH CENTRAL NEBRASKA...

CITY           SKY/WX    TMP DP  RH WIND       PRES   REMARKS
GRAND ISLAND   SUNNY     32  17  54 NW29G38   30.21F WCI  18
HASTINGS       SUNNY     33  18  53 NW28G45   30.21F WCI  20
ORD            SUNNY     32  17  54 NW36G46   30.21F WCI  16
YORK           MOSUNNY   30  19  64 N29G40    30.17F WCI  15
AURORA         SUNNY     31  18  59 N29G37    30.20F WCI  17
LEXINGTON      SUNNY     32  18  55 NW28G35   30.29F WCI  18
HOLDREGE       SUNNY     32  17  54 NW22G30   30.27S WCI  19
HEBRON         SUNNY     32  20  61 N21G35    30.21S WCI  20

...NEBRASKA PANHANDLE...

CITY           SKY/WX    TMP DP  RH WIND       PRES   REMARKS
CHADRON        CLOUDY    36  13  38 NW21G33   30.39F WCI  25
ALLIANCE       MOSUNNY   31  15  52 NW21      30.34F WCI  18
SCOTTSBLUFF    CLOUDY    36  19  50 NW21      30.38F WCI  25
SIDNEY         CLOUDY    33  19  56 NW15      30.37S WCI  23

...WESTERN AND NORTH CENTRAL NEBRASKA...

CITY           SKY/WX    TMP DP  RH WIND       PRES   REMARKS
VALENTINE      PTSUNNY   30  16  56 NW23G32   30.30  WCI  17
AINSWORTH      SUNNY     32  15  49 NW30      30.28S WCI  18
ONEILL         MOSUNNY   32  19  58 NW33G40   30.22S WCI  16
BROKEN BOW     SUNNY     33  15  47 N32G45    30.25F WCI  19
IMPERIAL       MOSUNNY   33  14  45 NW18      30.36F WCI  22
NORTH PLATTE   CLOUDY    33  15  47 NW28G35   30.32F WCI  20
MCCOOK         SUNNY     33  15  47 NW29G41   30.34F WCI  19

...EASTERN NEBRASKA...

CITY           SKY/WX    TMP DP  RH WIND       PRES   REMARKS
NORFOLK        MOSUNNY   29  17  61 NW33G44   30.14S WCI  13
SO SIOUX CITY  FLURRIES  26  16  65 N38G47    30.11S WCI   8
TEKAMAH        CLOUDY    29  17  61 NW29G43   30.13R WCI  14
COLUMBUS       MOSUNNY   30  12  47 NW24G36   30.16S WCI  16
ALBION         SUNNY     30  17  59 NW30G37   30.17S WCI  15
OMAHA EPPLEY   FLURRIES  27  17  66 NW30G40   30.10S WCI  11
OFFUTT AFB     FLURRIES  28  17  65 NW25G36   30.11R WCI  13
MILLARD        CLOUDY    29  17  62 NW21G38   30.12S WCI  16
LINCOLN        CLOUDY    31  19  61 NW30G39   30.16S WCI  16
NEBRASKA CITY  FLURRIES  29  20  70 N26G35    30.10S WCI  14
BEATRICE       CLOUDY    31  19  61 NW32G44   30.17R WCI  16
FALLS CITY     CLOUDY    31  19  61 N17G33    30.10S WCI  19

...NORTHERN KANSAS...

CITY           SKY/WX    TMP DP  RH WIND       PRES   REMARKS
GOODLAND       MOSUNNY   34  15  46 N23G32    30.37F WCI  22
HILL CITY      SUNNY     35  17  47 NW26G41   30.34F WCI  22
NORTON         CLEAR     34  16  47 NW29G38   30.31F HAZE    WCI  20
PHILLIPSBURG   SUNNY     36  18  48 NW23G31   30.31S WCI  24
SMITH CENTER   SUNNY     34  19  55 NW28G38   30.28F WCI  20
BELOIT         SUNNY     36  18  48 NW29G39   30.26F WCI  23
HAYS           SUNNY     37  12  35 NW31G41   30.33R WCI  25
RUSSELL        SUNNY     37  17  44 NW33G45   30.29S WCI  24
CONCORDIA      MOSUNNY   35  17  47 NW24G40   30.22F WCI  23
SALINA         SUNNY     40  14  34 N36G46    30.24F WCI  27
TOPEKA         CLOUDY    34  16  47 NW23G36   30.14S WCI  22



USA.gov is the U.S. government's official web portal to all federal, state and local government web resources and services.